YAHSAT 1A

Last updated on Jan. 20, 2021, 6:22 a.m. UTC

1 37393U 11016B   21019.90466095  .00000107  00000-0  00000-0 0  9994
2 37393   0.0161  60.4782 0003145 204.6683 232.5269  1.00269296 22608
UTC
Height (km)
Latitude
Longitude
Inclination
Orbital Period
UTC large
Height (km)
Speed (km/s)
/
Latitude / Longitude
Inclination (degrees)
Orbital Period (minutes)
Azimuth
Elevation
Range (km)
Doppler Factor
iOS Compass Heading
iOS Angle

Next 30 passes for location: Hong Kong

Rise time Rise Azimuth (degrees) Set time Set Azimuth (degrees) Duration Max altitude (degrees)

No matching passes for this satellites